Wetbulb
48.77 48.50 48.79 47.78 48.51 48.86 44.24 34.53 22.63 36.53 36.59 24.73 23.75 19.04 21.32 30.18 26.84 28.14 25.75 24.28 22.13 20.75 19.78 17.52 17.57 19.45 22.68 28.56 27.51 22.74 25.99 19.90 13.62 18.54 27.03 28.05 22.48 17.40 22.41 24.78 23.44 23.41 20.09 14.33
49.57 48.61 48.56 47.50 47.82 48.27 40.82 30.50 28.25 36.98 33.06 17.38 19.56 23.37 25.45 26.69 25.74 24.70 24.29 22.95 24.98 25.17 18.49 14.92 19.49 20.01 26.53 27.72 27.09 23.82 24.43 19.57 13.74 14.96 20.04 22.21 19.62 16.01 16.32 20.28 27.98 23.48 17.56 13.92
50.05 48.81 48.47 47.82 47.44 47.59 40.78 28.18 20.83 27.21 27.13 26.80 19.68 16.43 22.11 23.49 28.23 25.79 25.86 24.20 24.43 20.87 18.43 20.71 15.81 17.28 24.31 25.97 27.95 31.58 25.90 21.36 18.55 9.08 11.68 15.40 10.63 12.46 12.96 21.22 24.90 19.61 14.76 11.55
50.85 49.23 48.34 48.19 47.55 47.11 36.66 27.38 21.47 26.51 19.42 23.02 23.37 22.15 24.91 22.35 20.68 25.49 25.49 21.36 22.79 20.32 13.50 17.89 16.91 20.37 21.33 24.49 27.90 24.93 20.55 17.01 17.13 16.61 16.47 14.78 12.14 11.25 9.88 10.24 13.26 14.20 9.72 6.52
50.76 49.72 48.41 48.20 47.32 46.66 33.71 23.04 28.90 26.44 25.71 25.06 21.57 22.55 20.14 23.39 23.11 21.07 20.83 21.33 23.09 20.74 12.83 19.16 16.61 19.45 19.45 18.60 20.83 16.14 20.67 16.59 20.22 15.38 17.16 15.49 10.09 10.63 11.34 9.16 8.14 9.48 13.68 9.76
50.89 50.18 49.03 48.25 47.33 44.62 35.78 33.83 36.99 31.26 25.02 21.87 19.27 20.37 23.63 24.07 24.12 25.49 26.43 25.08 22.15 21.05 22.44 25.27 25.76 25.96 23.46 21.53 19.37 16.47 10.19 15.69 14.36 14.54 16.99 18.07 8.71 7.15 9.98 7.38 7.24 8.69 3.28 8.44
50.52 50.65 49.57 48.91 47.49 45.32 41.20 38.57 36.12 29.49 19.14 22.96 22.95 24.98 25.13 24.70 25.05 23.77 25.59 25.96 21.31 26.10 30.07 28.74 27.59 24.37 17.02 20.09 19.39 19.22 11.39 9.88 17.31 14.00 14.34 1.84 9.27 13.97 12.89 7.13 7.47 8.78 8.89 9.80
50.15 50.30 50.14 48.97 48.08 46.60 41.77 41.11 36.75 30.56 22.72 25.06 24.74 23.89 23.73 24.74 26.12 23.23 24.08 25.89 27.83 28.80 25.12 21.20 16.92 15.65 16.74 18.81 20.46 16.54 9.27 8.54 10.42 2.68 -1.21 4.36 9.70 10.36 8.49 7.29 4.32 9.49 7.87 9.41
49.87 50.23 50.39 48.93 48.41 47.15 43.29 40.90 39.69 33.70 27.29 20.42 25.67 23.50 24.78 20.43 19.46 20.67 24.08 28.95 29.24 25.77 22.88 19.40 4.35 5.64 10.96 10.68 14.24 19.62 18.36 10.78 7.14 5.36 -0.96 -4.25 4.46 7.91 11.38 14.61 4.32 9.26 9.63 8.97
50.29 50.38 50.35 50.02 48.63 47.53 44.29 40.90 39.73 36.57 28.27 28.32 26.37 25.18 24.88 28.75 23.41 20.59 22.05 23.59 23.99 25.29 19.62 15.07 11.19 8.11 17.13 7.17 4.17 4.00 6.84 4.18 -0.43 0.90 -0.79 1.63 2.44 8.33 10.09 0.31 3.18 9.77 9.17 8.83
50.26 50.40 50.35 50.25 48.89 47.35 44.23 40.27 40.33 35.59 30.91 31.10 31.07 30.74 29.01 28.14 27.16 20.06 23.22 20.87 21.47 20.97 12.73 15.24 13.62 10.16 9.13 11.32 6.96 -1.89 -1.59 -2.73 -2.68 -2.11 -6.85 -2.22 10.67 9.71 -0.36 0.84 8.66 9.54 10.32 9.26
50.02 50.14 50.34 50.39 47.97 46.77 44.72 35.91 37.90 39.12 34.23 30.54 33.78 34.48 34.88 33.35 33.40 30.28 28.72 22.07 22.57 19.59 13.74 11.49 10.02 11.00 7.01 11.39 6.25 8.22 3.85 0.05 0.62 1.11 -0.87 4.22 3.88 6.63 9.94 10.69 7.68 10.25 9.88 10.69
49.87 50.12 50.46 48.70 47.33 45.81 43.06 34.39 35.54 36.72 32.80 28.09 29.47 27.31 31.45 34.41 33.36 33.88 26.05 24.08 26.06 22.93 23.43 17.83 15.91 9.61 18.72 9.97 9.66 8.83 7.21 9.09 8.85 7.25 6.10 8.87 11.26 9.93 10.56 7.20 7.54 10.21 11.53 11.17
50.00 49.99 48.68 47.10 46.34 44.88 42.88 34.54 36.24 36.26 30.96 19.29 23.24 32.29 28.93 31.65 33.15 32.57 31.60 30.14 26.53 24.92 22.56 22.89 15.72 14.21 19.90 12.82 12.00 8.47 8.25 10.36 8.14 7.33 8.30 10.82 10.45 9.11 9.61 9.36 10.28 10.49 11.47 11.32
49.66 47.59 46.73 46.33 44.82 43.31 38.70 36.43 35.98 36.12 29.85 16.08 21.61 28.71 28.51 29.53 28.97 26.49 26.74 25.72 24.01 21.80 13.82 15.11 17.21 18.71 16.96 11.95 9.23 4.06 8.82 6.34 4.18 4.44 8.53 7.39 7.87 9.22 10.91 8.55 8.44 10.35 10.25 9.39
46.77 46.36 45.56 44.17 42.15 40.81 35.70 29.98 35.87 37.50 37.87 29.20 20.71 26.24 24.33 24.27 24.25 24.24 24.15 25.17 24.89 26.72 14.96 14.06 17.46 19.52 15.96 11.12 2.56 8.47 10.77 11.69 12.29 9.11 11.27 9.79 10.79 11.05 10.89 9.35 9.63 9.47 9.67 9.24
45.67 44.89 43.35 41.01 41.42 37.21 32.13 30.93 33.67 37.03 34.54 29.77 19.38 20.50 24.11 22.97 23.16 22.71 21.98 23.09 19.68 18.46 16.49 15.61 14.14 12.67 12.16 5.56 -0.93 7.07 9.20 10.31 12.41 11.68 10.36 8.03 9.79 8.21 10.88 10.97 9.50 9.75 7.98 8.69
44.04 41.98 39.86 42.51 42.15 39.28 34.96 33.90 37.11 34.43 31.71 29.77 14.83 12.57 20.99 22.25 18.32 13.95 15.44 13.28 18.50 13.17 12.56 13.76 12.04 9.73 6.67 -1.07 5.53 8.38 9.60 9.95 10.40 9.88 11.14 10.54 11.36 10.22 8.76 10.17 8.85 6.95 5.94 5.71
42.16 39.32 40.26 36.46 31.67 29.29 31.03 37.07 37.30 32.31 27.67 16.34 10.40 3.07 4.42 17.74 14.63 14.79 13.83 9.96 6.26 15.61 5.75 10.53 8.44 1.15 -3.24 2.65 4.68 6.55 8.28 7.72 7.97 9.85 10.25 10.03 8.48 7.96 8.26 8.60 7.94 6.56 6.00 6.07
39.84 33.76 28.75 21.12 30.86 37.18 34.60 29.97 24.95 16.96 13.53 12.87 6.97 5.03 5.25 10.18 7.11 4.30 3.65 3.97 3.06 2.62 5.76 8.88 -1.81 -0.18 5.60 6.78 7.25 7.63 8.30 9.27 9.91 6.05 5.12 6.70 6.46 7.22 6.93 7.11 7.94 7.81 7.47 7.37
30.00 20.67 22.59 29.08 35.41 27.22 21.06 7.47 8.36 4.23 4.22 7.21 5.63 4.66 2.77 9.54 -1.25 -4.44 -1.86 -3.89 -4.05 3.18 5.42 3.60 -3.09 -3.72 1.45 5.80 6.22 7.06 8.23 8.76 8.95 10.00 10.27 9.91 9.01 7.90 7.28 7.55 8.59 8.40 8.35 8.07
30.77 29.77 30.15 25.75 16.18 10.73 8.35 -2.12 5.31 3.94 2.44 6.70 1.18 4.32 3.63 2.82 1.30 -0.74 2.79 -1.13 7.16 -1.91 12.39 0.43 -6.89 -0.47 3.36 3.89 4.28 5.72 6.45 7.24 7.24 9.25 9.40 9.84 9.78 9.47 9.04 8.98 8.61 8.88 9.48 9.95
28.94 18.67 10.97 14.21 10.61 4.06 1.17 0.77 0.35 2.21 4.61 0.14 1.61 0.49 -1.40 1.81 4.20 -3.59 -0.00 1.43 0.05 11.97 -0.34 -5.32 -3.18 1.90 2.55 3.28 3.22 3.13 4.96 5.11 6.39 6.71 8.37 9.24 9.52 10.08 9.58 9.06 9.70 9.33 9.16 9.56
15.20 9.80 6.70 2.53 -2.07 4.49 4.38 4.19 5.89 8.37 -4.24 2.79 2.64 -5.85 -4.28 -5.45 0.25 2.17 -1.49 7.58 4.63 -1.99 -8.00 -8.43 -1.56 0.67 1.60 2.58 2.84 1.70 1.52 2.39 2.23 4.69 5.97 6.87 7.68 8.57 9.70 10.13 10.49 9.59 8.32 9.23
9.05 9.36 6.75 3.27 8.37 7.42 4.05 3.46 0.26 0.50 -6.25 -1.83 -5.18 -3.90 -2.41 -1.62 0.26 5.84 2.30 -3.12 -8.49 -6.91 -8.61 -3.23 1.10 2.42 1.61 0.93 1.44 1.32 0.94 1.50 1.47 4.06 4.41 4.97 6.86 7.78 8.29 9.91 10.71 10.84 10.06 9.88
5.89 4.27 0.53 8.12 3.16 -3.81 -2.22 -2.91 -5.59 -1.96 3.52 1.94 -0.74 -3.33 -3.32 -0.61 -2.86 -7.72 -8.86 -11.47 -14.23 -8.79 -3.32 1.12 1.48 1.49 1.33 1.85 2.40 2.14 2.79 2.55 3.73 4.70 5.31 6.18 6.82 7.03 7.94 9.35 9.94 11.02 10.76 9.62
2.70 2.36 5.07 3.46 3.00 -2.17 -3.41 -2.97 1.31 5.33 1.56 -2.57 -3.17 -7.69 -5.85 0.55 -6.24 -9.65 -6.60 -12.94 -6.74 -2.44 -0.27 1.47 1.78 2.47 1.30 2.51 1.94 2.87 3.18 3.72 2.54 3.12 4.51 5.51 8.37 6.85 6.57 6.76 8.80 10.76 11.81 9.54
MSLP
1023.11 1022.40 1021.66 1020.92 1019.77 1018.59 1017.40 1017.48 1016.59 1014.46 1013.84 1015.07 1016.43 1017.26 1016.89 1016.03 1015.29 1015.02 1014.66 1014.66 1014.71 1014.53 1013.80 1012.80 1011.95 1011.01 1009.90 1009.08 1008.35 1007.16 1006.82 1006.22 1005.21 1003.89 1003.96 1003.34 1003.30 1004.09 1002.74 1001.12 1000.27 1000.05 1002.03 1007.86
1023.05 1022.36 1021.73 1021.01 1019.92 1018.84 1018.38 1018.46 1017.80 1015.09 1014.85 1016.96 1017.58 1017.53 1017.02 1016.30 1015.56 1014.90 1014.88 1014.90 1014.92 1014.84 1014.37 1013.73 1012.20 1011.47 1010.05 1009.52 1009.09 1008.28 1007.90 1006.82 1005.99 1004.68 1004.61 1004.78 1005.86 1006.91 1005.68 1003.88 1002.84 1003.05 1004.90 1009.81
1022.92 1022.32 1021.72 1021.10 1020.28 1019.20 1018.85 1019.34 1019.05 1017.69 1017.53 1018.31 1018.54 1018.13 1017.28 1016.56 1015.91 1015.57 1015.28 1015.09 1014.96 1014.83 1014.47 1013.91 1012.82 1012.21 1010.69 1009.98 1009.57 1008.73 1008.40 1008.35 1008.01 1008.62 1009.89 1010.24 1009.81 1008.99 1007.54 1005.80 1005.61 1006.61 1009.01 1011.51
1022.78 1022.32 1021.68 1021.17 1020.60 1019.80 1019.66 1020.25 1020.76 1020.20 1019.44 1018.79 1019.07 1018.53 1017.75 1016.83 1016.41 1016.00 1015.54 1015.10 1015.23 1015.18 1014.66 1013.50 1012.84 1011.97 1011.57 1010.34 1010.15 1009.83 1009.81 1009.80 1009.58 1010.36 1010.81 1011.02 1012.20 1012.06 1011.12 1009.91 1010.29 1010.07 1012.92 1014.50
1022.74 1022.24 1021.70 1021.14 1020.67 1020.13 1020.53 1021.16 1021.24 1020.67 1020.04 1019.52 1019.31 1018.69 1018.50 1017.72 1016.81 1016.52 1015.82 1015.56 1014.57 1014.47 1014.59 1014.06 1012.89 1012.46 1011.95 1011.70 1011.12 1011.36 1011.04 1011.06 1010.78 1011.19 1011.55 1011.60 1012.92 1014.06 1014.14 1014.37 1014.30 1014.03 1014.92 1015.96
1022.72 1022.18 1021.67 1021.13 1020.80 1020.54 1020.86 1021.06 1020.69 1020.76 1019.81 1019.63 1019.53 1019.07 1018.44 1017.64 1017.02 1016.02 1015.62 1015.18 1014.53 1013.73 1013.15 1012.54 1011.79 1011.19 1011.62 1011.97 1012.30 1012.38 1012.32 1012.29 1011.88 1011.58 1011.94 1012.51 1014.33 1016.58 1016.69 1017.76 1018.30 1018.01 1018.52 1019.35
1022.59 1022.02 1021.52 1021.00 1020.92 1020.84 1020.98 1020.92 1020.73 1020.59 1019.80 1019.73 1019.39 1018.95 1018.61 1017.86 1017.22 1016.59 1015.42 1014.84 1014.51 1013.42 1012.41 1011.21 1010.25 1010.43 1011.33 1012.04 1012.62 1013.06 1013.26 1012.94 1012.79 1012.79 1013.17 1015.24 1017.62 1018.41 1018.78 1019.42 1020.05 1020.49 1020.44 1020.69
1022.30 1021.73 1021.19 1020.83 1020.57 1020.51 1020.62 1020.46 1020.52 1020.45 1019.70 1019.20 1018.59 1018.29 1018.21 1017.44 1016.82 1016.34 1015.75 1014.73 1014.30 1013.42 1012.73 1012.55 1012.16 1012.22 1012.56 1012.98 1013.37 1013.57 1013.73 1014.08 1014.32 1014.78 1016.38 1018.16 1018.55 1019.49 1020.17 1020.26 1021.35 1021.63 1021.57 1021.10
1021.86 1021.26 1020.83 1020.21 1019.98 1019.76 1019.81 1019.88 1019.82 1020.14 1019.90 1018.44 1018.19 1017.99 1017.79 1017.53 1016.98 1016.18 1015.70 1014.84 1013.95 1013.91 1013.94 1013.98 1014.42 1014.74 1014.59 1014.52 1014.38 1014.34 1014.69 1015.13 1015.70 1016.44 1018.02 1019.88 1020.42 1020.26 1020.40 1020.56 1021.65 1021.99 1022.12 1022.07
1021.19 1020.66 1020.13 1019.65 1019.37 1019.19 1019.21 1019.34 1019.38 1019.68 1019.34 1017.51 1017.66 1017.85 1017.52 1017.44 1017.18 1017.02 1016.42 1016.05 1015.29 1014.89 1015.51 1015.91 1016.11 1016.05 1015.68 1016.43 1017.25 1017.33 1017.24 1017.68 1018.54 1019.17 1020.18 1021.11 1021.59 1020.90 1020.54 1021.66 1023.01 1022.38 1022.58 1022.62
1020.67 1020.04 1019.38 1018.82 1018.64 1018.67 1018.62 1018.67 1018.68 1019.32 1018.46 1017.21 1017.10 1016.99 1017.07 1016.87 1016.93 1016.77 1016.73 1016.64 1016.34 1016.65 1017.09 1017.56 1017.79 1017.59 1017.09 1017.56 1018.96 1019.61 1020.38 1020.99 1021.20 1021.17 1021.66 1022.51 1022.05 1021.55 1022.50 1023.86 1022.85 1022.63 1022.48 1022.49
1020.04 1019.42 1018.80 1018.23 1018.26 1018.17 1018.08 1018.39 1018.17 1018.07 1018.25 1017.11 1016.58 1016.17 1015.94 1016.22 1015.98 1016.62 1016.63 1017.32 1017.63 1017.74 1018.15 1018.45 1018.52 1018.47 1018.16 1018.12 1019.40 1020.24 1021.26 1022.08 1022.46 1022.63 1022.86 1023.00 1023.18 1023.50 1024.05 1023.86 1023.54 1022.73 1022.25 1021.80
1019.38 1018.76 1018.22 1018.00 1017.96 1017.90 1017.86 1017.99 1017.85 1017.77 1017.60 1017.06 1016.55 1015.91 1015.79 1015.45 1015.57 1015.96 1016.68 1016.95 1017.36 1017.85 1018.09 1018.74 1018.74 1018.60 1018.20 1018.68 1019.65 1020.60 1021.70 1021.98 1022.38 1022.75 1023.20 1023.14 1023.56 1023.82 1024.05 1024.01 1023.78 1023.28 1022.83 1022.26
1018.74 1018.14 1017.88 1017.78 1017.60 1017.40 1017.22 1017.82 1017.65 1017.73 1017.91 1018.01 1016.80 1016.09 1016.03 1015.96 1015.74 1015.79 1016.29 1016.67 1017.12 1017.62 1017.95 1018.43 1018.56 1018.59 1018.63 1019.31 1020.22 1021.54 1022.93 1022.67 1023.02 1023.27 1023.67 1023.78 1023.57 1023.97 1024.33 1024.23 1023.97 1023.57 1023.05 1022.69
1018.36 1018.09 1017.75 1017.41 1017.28 1017.16 1017.31 1017.67 1017.82 1017.76 1018.09 1017.96 1017.39 1016.81 1016.89 1016.63 1016.56 1016.30 1016.55 1016.97 1017.39 1017.80 1018.27 1018.45 1018.65 1018.93 1019.43 1020.21 1021.59 1023.60 1024.21 1024.43 1024.39 1024.18 1024.63 1024.77 1024.61 1024.61 1024.70 1024.56 1024.40 1023.96 1023.40 1022.71
1018.41 1018.00 1017.59 1017.17 1016.86 1016.73 1017.44 1017.85 1018.04 1017.74 1017.76 1017.83 1018.04 1017.63 1017.47 1017.16 1016.99 1016.85 1016.64 1016.97 1017.45 1017.89 1018.54 1018.95 1019.52 1020.00 1020.28 1021.22 1023.52 1025.37 1025.45 1025.45 1025.29 1025.10 1024.98 1024.82 1024.78 1024.82 1024.86 1024.75 1024.53 1024.19 1023.64 1023.12
1018.18 1017.71 1017.25 1017.05 1016.78 1017.00 1017.53 1018.27 1018.37 1017.90 1017.98 1018.29 1018.77 1018.74 1018.60 1018.22 1017.75 1017.68 1017.70 1017.61 1018.09 1018.58 1019.33 1019.87 1020.75 1021.50 1021.88 1023.83 1025.67 1026.39 1026.29 1026.07 1025.71 1025.73 1025.31 1024.99 1024.91 1025.06 1024.96 1024.75 1024.35 1024.13 1023.74 1023.13
1017.81 1017.45 1017.20 1017.06 1017.04 1017.37 1017.65 1018.13 1017.95 1017.92 1018.21 1018.70 1019.93 1020.13 1019.74 1019.70 1019.66 1019.53 1019.22 1019.27 1019.27 1019.90 1020.52 1021.19 1022.11 1023.66 1025.12 1026.73 1027.49 1027.25 1026.94 1026.52 1026.22 1026.17 1025.95 1025.74 1025.44 1025.11 1024.99 1024.76 1024.35 1023.91 1023.65 1023.17
1017.64 1017.51 1017.25 1017.40 1017.89 1018.12 1018.40 1018.09 1018.15 1018.34 1019.30 1020.36 1021.60 1022.92 1022.56 1021.53 1021.58 1020.99 1020.50 1020.69 1021.07 1021.03 1021.80 1022.74 1023.71 1026.43 1028.01 1028.82 1028.52 1028.09 1027.72 1027.39 1026.98 1026.57 1026.23 1025.92 1025.64 1025.30 1025.00 1024.72 1024.43 1024.14 1023.68 1023.27
1017.48 1017.62 1018.06 1018.35 1018.56 1018.39 1018.47 1018.51 1019.04 1019.64 1021.21 1022.29 1024.39 1024.97 1024.64 1024.31 1023.96 1023.12 1023.02 1022.70 1022.28 1022.49 1023.49 1023.93 1026.07 1028.69 1029.74 1029.80 1029.58 1029.16 1028.60 1028.02 1027.38 1026.81 1026.27 1026.00 1025.67 1025.42 1025.14 1024.86 1024.56 1024.31 1023.91 1023.33
1018.54 1018.89 1019.26 1019.23 1018.59 1018.66 1019.58 1021.11 1022.06 1023.30 1024.97 1025.84 1026.37 1026.60 1026.61 1025.80 1026.21 1025.64 1025.01 1024.56 1023.50 1023.24 1023.95 1024.75 1027.68 1029.90 1030.73 1030.56 1030.16 1029.84 1029.24 1028.67 1028.03 1027.43 1026.95 1026.57 1026.18 1025.77 1025.34 1024.87 1024.51 1024.17 1023.80 1023.35
1019.17 1019.50 1019.31 1019.65 1020.15 1021.27 1022.47 1024.64 1025.44 1026.50 1028.07 1028.14 1028.10 1027.96 1027.53 1026.85 1026.72 1026.57 1025.73 1025.42 1024.30 1024.30 1024.36 1026.27 1029.46 1031.38 1031.53 1031.15 1030.81 1030.32 1029.86 1029.23 1028.59 1027.92 1027.28 1026.74 1026.32 1025.95 1025.49 1024.99 1024.55 1024.16 1023.73 1023.23
1019.31 1020.07 1021.14 1022.04 1023.64 1025.24 1027.56 1028.97 1029.14 1029.53 1029.98 1030.02 1029.92 1029.45 1028.32 1027.39 1027.44 1027.21 1026.73 1025.81 1025.28 1024.99 1026.55 1029.35 1031.56 1032.17 1032.08 1031.69 1031.38 1030.86 1030.36 1029.84 1029.11 1028.39 1027.69 1027.08 1026.55 1026.10 1025.62 1025.10 1024.60 1024.16 1023.73 1023.29
1020.77 1022.63 1024.83 1026.47 1028.66 1030.24 1031.18 1031.81 1031.53 1031.34 1031.26 1031.06 1030.79 1030.35 1029.58 1028.72 1028.29 1027.76 1027.42 1026.49 1026.48 1027.30 1029.35 1031.45 1032.42 1032.66 1032.60 1032.24 1031.89 1031.41 1030.83 1030.26 1029.70 1028.89 1028.15 1027.42 1026.83 1026.26 1025.73 1025.20 1024.66 1024.18 1023.76 1023.38
1023.75 1025.48 1028.61 1030.31 1031.47 1032.10 1032.59 1032.66 1032.49 1032.25 1031.82 1031.74 1031.22 1030.52 1030.23 1029.63 1029.18 1028.75 1028.70 1028.78 1030.29 1031.51 1032.68 1033.16 1033.20 1033.16 1032.96 1032.56 1032.16 1031.79 1031.23 1030.62 1030.00 1029.17 1028.45 1027.73 1027.06 1026.42 1025.81 1025.24 1024.70 1024.20 1023.80 1023.49
1027.38 1030.03 1031.37 1032.09 1032.77 1033.71 1033.67 1033.59 1033.34 1032.74 1032.26 1031.72 1031.75 1031.50 1031.03 1030.96 1031.08 1031.42 1032.12 1032.45 1033.85 1034.35 1034.40 1034.15 1033.97 1033.57 1033.28 1032.88 1032.39 1032.03 1031.49 1030.91 1030.24 1029.51 1028.72 1027.94 1027.22 1026.66 1026.01 1025.35 1024.82 1024.31 1023.90 1023.63
1030.52 1033.12 1033.55 1034.14 1034.58 1035.35 1035.33 1034.82 1034.33 1033.30 1032.95 1033.18 1032.96 1033.29 1033.22 1032.87 1033.13 1034.36 1034.94 1035.78 1035.85 1035.46 1035.00 1034.70 1034.49 1033.95 1033.66 1033.10 1032.77 1032.25 1031.73 1031.12 1030.58 1029.79 1028.96 1028.14 1027.32 1026.76 1026.21 1025.58 1025.02 1024.52 1024.11 1023.87
Wind_Speed
24 26 27 30 30 31 15 4 4 5 5 6 3 3 4 7 11 4 3 4 4 6 19 6 4 7 10 15 15 13 4 3 5 5 4 11 17 9 6 2 2 3 5 5
22 24 25 28 30 30 8 4 4 5 6 5 4 5 5 4 10 6 5 5 3 10 8 7 5 9 14 14 11 16 10 5 7 6 4 9 10 15 9 10 4 2 4 6
20 22 24 25 26 31 7 4 5 5 5 3 2 5 5 8 6 5 7 6 5 8 8 4 6 12 9 18 6 20 7 4 4 3 4 4 7 19 19 6 3 4 7 9
21 20 23 22 24 27 4 4 3 1 7 7 10 5 6 12 9 2 5 4 11 10 7 7 5 16 16 9 8 9 4 5 12 11 11 17 16 17 20 18 11 5 9 9
22 17 20 20 21 20 4 2 3 3 6 7 6 7 8 9 12 3 7 7 19 7 3 4 20 17 6 5 7 6 6 4 3 1 8 15 19 20 14 13 13 15 8 7
23 20 19 18 18 10 2 3 2 2 6 4 4 3 11 12 8 6 5 14 11 17 8 16 20 17 7 7 2 5 3 3 2 2 7 5 7 14 10 6 10 5 9 7
23 20 19 17 12 12 1 3 2 2 5 3 7 13 13 10 10 8 14 8 5 11 18 18 7 2 4 4 2 1 4 3 2 2 3 6 2 8 7 10 8 7 5 10
23 22 18 16 10 10 2 2 2 2 6 7 11 7 9 9 8 4 5 6 9 12 9 5 6 6 7 4 4 8 4 1 3 4 4 2 1 6 4 3 4 10 12 12
24 22 21 13 11 7 1 2 3 2 5 4 5 6 4 4 4 7 5 7 9 7 3 3 3 2 2 6 11 9 8 3 5 4 5 4 5 8 4 5 3 10 11 11
23 22 21 18 11 11 2 2 4 2 6 6 2 7 6 4 2 3 5 8 8 6 5 4 3 4 3 3 5 7 7 6 4 5 3 1 4 12 5 4 5 13 8 8
22 22 21 21 11 11 4 3 4 3 4 9 6 4 2 2 2 1 5 7 5 4 6 3 4 2 4 2 1 3 2 2 3 3 5 2 5 3 8 6 6 8 10 7
22 22 22 19 9 13 7 3 2 4 5 6 2 8 11 8 8 2 1 3 2 2 3 2 2 4 3 1 2 2 3 4 3 4 5 4 3 7 3 4 3 9 11 13
23 23 23 10 12 11 9 3 2 2 2 5 2 3 1 3 2 2 2 1 0 1 4 2 3 3 1 2 2 4 2 0 1 3 5 1 5 4 5 3 4 9 10 13
23 24 12 13 12 13 12 1 2 1 2 0 5 1 2 1 2 3 1 2 2 1 2 3 3 3 2 1 3 4 3 5 6 4 5 3 2 9 6 9 8 11 12 12
19 13 15 14 15 15 3 1 1 1 3 4 4 2 3 4 2 3 3 2 3 1 2 2 1 2 1 1 5 4 5 4 4 3 3 2 5 6 9 10 10 12 11 14
14 17 17 17 15 5 3 1 2 4 1 1 3 3 4 5 6 4 2 2 2 2 3 1 2 2 2 2 4 6 8 8 6 4 6 4 4 5 7 8 10 11 10 11
18 20 18 13 5 3 2 2 2 7 1 2 4 4 3 4 3 3 3 4 1 3 0 2 3 4 6 5 4 10 9 9 5 8 8 4 4 6 9 8 10 10 8 8
20 16 6 10 13 10 3 3 7 6 0 1 1 5 3 7 4 4 2 3 2 4 2 3 4 4 4 5 6 9 9 8 6 10 6 5 7 6 6 6 7 10 9 11
15 5 3 3 4 3 1 7 4 3 3 2 4 2 4 7 3 2 4 3 2 2 3 3 5 3 7 6 10 11 11 8 9 9 6 6 6 8 9 8 9 9 11 10
6 4 3 3 1 7 4 1 3 6 5 6 3 1 4 4 4 4 4 3 1 3 1 4 5 4 3 8 8 9 11 11 10 7 10 9 9 9 9 8 7 7 8 9
4 3 1 3 7 3 4 3 5 4 6 4 3 2 2 2 2 4 1 2 3 3 1 4 4 3 6 10 8 10 11 11 10 9 6 6 7 7 8 9 8 8 8 9
2 2 1 4 5 5 7 2 5 7 3 5 3 4 3 4 2 2 4 1 3 1 3 5 4 3 7 9 12 11 11 12 12 11 10 8 8 8 7 8 8 8 8 9
3 5 6 5 6 13 8 9 6 6 7 4 5 8 2 5 4 2 2 4 1 1 5 4 3 4 7 9 10 12 10 11 12 12 11 11 9 8 7 7 7 7 7 7
5 6 9 6 6 5 3 3 4 3 1 8 6 3 1 3 4 2 3 2 5 5 5 3 4 6 9 8 9 10 13 12 12 11 11 11 10 9 8 7 7 7 7 8
6 7 7 5 2 3 1 3 3 4 2 3 4 3 2 3 3 3 5 6 6 6 4 4 6 8 8 9 9 11 11 11 11 10 10 11 11 8 8 8 8 6 5 6
7 10 6 4 4 5 4 4 4 3 7 3 1 2 5 4 3 6 7 5 4 4 5 5 8 10 7 10 9 10 10 10 11 10 11 11 9 8 8 8 7 8 6 6
7 4 3 3 3 1 3 3 5 6 4 3 3 6 4 4 5 4 4 3 5 7 7 5 9 8 9 8 10 11 11 10 11 11 11 11 10 7 6 8 9 8 7 5
Wind_Direction
353 350 353 351 347 347 351 360 10 309 2 43 26 357 283 280 329 339 317 314 288 328 326 297 298 332 352 351 332 348 12 299 300 297 59 56 63 11 330 297 19 16 81 103
351 352 354 353 348 349 342 338 273 308 62 44 9 303 291 300 333 325 355 298 337 319 312 323 303 344 326 348 347 359 347 336 322 338 10 40 27 5 332 278 293 261 105 142
352 352 350 351 352 346 1 18 349 325 17 12 349 321 304 328 327 306 331 265 320 328 302 259 288 340 317 320 314 354 4 303 337 92 70 25 5 358 355 287 126 44 30 100
351 351 348 351 354 348 43 24 307 8 312 339 323 311 350 336 354 316 321 323 334 328 325 301 335 322 327 314 355 340 52 3 92 106 112 80 52 23 18 44 3 47 98 78
346 347 345 350 355 352 63 61 335 329 278 282 324 340 343 336 331 231 308 326 323 324 294 246 307 311 319 271 334 1 353 8 294 85 142 77 55 24 31 38 7 41 46 68
335 343 341 347 354 25 355 297 255 259 281 302 352 333 337 320 336 290 260 315 316 317 304 308 290 277 234 234 19 316 46 325 305 251 205 300 30 1 28 79 30 13 39 340
325 331 337 348 351 10 276 280 270 289 281 318 302 320 322 320 322 289 311 320 347 294 312 307 301 27 84 144 341 76 328 348 271 338 37 53 124 47 58 97 66 51 51 353
322 324 324 340 336 348 284 274 297 282 283 300 300 313 326 301 297 278 282 325 297 310 321 337 346 351 11 17 96 17 84 9 329 85 37 165 45 16 332 343 89 31 4 359
319 320 322 315 321 321 266 252 221 245 306 261 315 311 300 301 307 330 284 323 315 3 329 2 37 353 270 325 335 16 355 55 93 17 91 122 230 305 273 207 188 14 11 2
318 321 319 314 312 319 321 252 212 216 273 264 145 307 282 280 302 271 308 334 334 23 352 352 6 307 352 353 345 331 348 354 60 4 90 246 249 298 296 53 309 345 347 349
316 318 317 318 320 333 332 234 204 220 251 281 233 265 253 287 201 192 310 355 357 360 21 15 319 333 276 72 136 157 121 62 345 351 45 357 331 8 85 246 299 317 337 335
312 313 314 321 349 338 356 261 233 235 236 266 283 255 250 243 247 221 186 212 348 242 37 5 331 298 320 276 248 340 357 169 184 138 213 238 319 105 185 243 286 333 333 334
311 312 317 347 342 342 343 241 263 244 276 302 292 316 273 60 106 132 195 33 250 20 179 229 245 263 302 287 142 117 6 147 1 149 343 99 90 54 32 16 324 336 331 327
314 318 345 334 336 330 332 160 262 12 19 228 283 308 41 346 67 93 4 275 4 196 147 228 232 236 38 30 83 59 352 345 339 95 43 144 122 39 24 352 351 336 329 319
324 345 329 338 331 326 348 146 24 120 133 230 285 335 343 21 43 356 300 227 208 215 354 240 280 44 12 50 80 42 355 2 359 4 58 276 296 337 11 354 339 333 323 328
336 329 337 333 329 350 74 71 43 21 21 288 303 319 9 339 328 304 282 239 216 188 151 213 85 25 296 104 81 30 20 8 346 328 343 289 288 314 3 332 331 323 332 317
330 331 334 332 335 85 76 69 313 334 79 269 320 330 336 330 302 347 8 7 93 101 42 56 67 28 35 45 49 1 2 342 29 14 356 344 6 323 325 327 322 322 299 305
330 340 4 79 99 120 88 356 357 356 1 122 349 277 16 6 324 325 342 0 36 7 114 32 60 33 47 61 354 357 355 345 8 348 335 303 311 321 326 325 323 337 340 330
334 8 118 48 33 35 272 331 26 52 74 89 70 79 284 350 338 293 346 36 345 5 73 59 71 44 44 357 359 0 358 352 328 330 330 332 332 325 330 339 345 337 333 333
353 58 49 15 2 285 320 56 38 19 350 24 61 316 304 29 348 304 359 358 255 69 322 85 73 85 83 8 5 352 353 347 341 343 353 347 345 340 334 332 327 321 317 319
32 31 66 260 324 34 17 29 64 328 26 11 313 96 302 338 52 266 175 266 272 86 249 91 72 62 4 347 349 357 346 350 344 336 325 331 324 325 325 328 333 330 327 326
248 245 328 20 33 35 69 340 347 47 30 344 0 309 239 294 69 47 319 255 341 66 45 68 70 28 350 348 352 344 349 343 346 343 340 341 341 335 325 320 330 332 325 324
44 43 45 41 330 38 43 349 336 354 351 4 333 319 279 340 35 331 360 4 308 47 55 70 60 343 353 344 349 342 339 344 341 345 342 342 334 340 337 329 326 327 333 335
74 63 27 70 6 50 20 312 289 314 316 323 308 264 315 283 359 296 3 335 31 53 49 65 15 2 349 345 340 341 338 341 336 337 337 335 333 334 335 331 326 328 337 337
56 47 47 61 127 46 201 309 350 308 253 324 332 312 100 326 354 11 5 28 52 36 30 348 356 344 343 341 340 339 335 335 332 332 335 329 328 329 328 333 332 327 324 342
64 38 34 356 59 330 348 340 312 307 315 303 74 334 24 24 45 37 8 50 47 351 330 335 337 332 342 334 336 333 328 328 335 332 329 326 328 334 330 326 335 338 340 344
58 32 22 22 72 154 305 312 321 314 329 13 18 37 359 346 42 42 24 30 318 321 319 340 328 331 345 341 343 337 331 337 335 329 332 327 324 319 338 349 341 337 349 356